Regional Weather Roundup
Issued by NWS

Home | Current Version | Previous Version | Text Only | Print | Product List | Glossary Off
Versions: 1 2 3 4 5 6 7 8 9 10 11 12 13 14 15 16 17 18 19 20 21 22 23 24 25 26 27 28 29 30 31 32 33 34 35 36 37 38 39 40 41 42 43 44 45 46 47 48 49 50

000
ASUS45 KABQ 251510
RWRNM
NEW MEXICO REGIONAL WEATHER ROUNDUP
NATIONAL WEATHER SERVICE ALBUQUERQUE NM
900 AM MDT THU AUG 25 2016

NOTE: "FAIR" MEANS FEW OR NO CLOUDS BELOW 12,000 FEET AGL WITH NO
       SIGNIFICANT WEATHER OR OBSTRUCTIONS TO VISION.

      THIS PRODUCT IS RELEASED AS TWO VERSIONS.  ONE VERSION NEAR
      THE TOP OF THE HOUR CONTAINING PRELIMINARY DATA FROM ALBUQUERQUE
      AND OTHER STATIONS.  A FINAL VERSION WITH ADDITIONAL DATA IS
      ISSUED ABOUT 10 MINUTES AFTER THE HOUR.

NMZ501-503-504-510>518-251600-
NORTHWEST PLATEAU/NORTHCENTRAL MOUNTAINS

CITY           SKY/WX    TMP DP  RH WIND       PRES   REMARKS
FARMINGTON     FAIR      60  48  64 SE10      30.25S
LOS ALAMOS     FAIR      56  46  70 CALM      30.38R
SANTA FE       FAIR      62  49  62 NE7       30.32S
TAOS           FAIR      54  45  71 N3        30.38S
ANGEL FIRE     FOG       44  43  97 CALM      30.45S VSB 1

$$
NMZ402-403-502-505>509-251600-
WESTCENTRAL MOUNTAINS/SOUTHWEST MOUNTAINS

CITY           SKY/WX    TMP DP  RH WIND       PRES   REMARKS
GALLUP         FAIR      58  45  62 CALM      30.32R
GRANTS         FAIR      58  45  61 SE3       30.34S
SILVER CITY    FAIR      70  47  44 NE3       30.24R

$$
NMZ407-409-411-412-251600-
SOUTHERN DESERTS

CITY           SKY/WX    TMP DP  RH WIND       PRES   REMARKS
DEMING         FAIR      73  54  51 E3        30.18R
LAS CRUCES     FAIR      69  55  60 E3        30.20R
HOLLOMAN AFB   FAIR      62  55  80 CALM      30.16R
ALAMOGORDO     FAIR      66  55  68 CALM      30.19R
T OR C         FAIR      69  50  50 NE6       30.22R

$$
NMZ519>523-251600-
CENTRAL VALLEYS/CENTRAL HIGHLANDS

CITY           SKY/WX    TMP DP  RH WIND       PRES   REMARKS
ALBUQUERQUE    PTSUNNY   64  50  60 N6        30.27R
DOUBLE EAGLE   MOSUNNY   63  48  59 VRB6      30.30R
MORIARTY ARPT  FAIR      57  48  72 CALM      30.34S
CLINES CORNERS FAIR      57  48  72 SE5       30.37R
BELEN          FAIR      63  47  54 CALM      30.27R
SOCORRO        FAIR      67  48  50 N7        30.24S

$$
NMZ524>526-539-540-251600-
SOUTHCENTRAL MOUNTAINS

CITY           SKY/WX    TMP DP  RH WIND       PRES   REMARKS
RUIDOSO          N/A     57  50  77 NW5       30.36R

$$
NMZ527>531-251600-
NORTHEAST HIGHLANDS/NORTHEAST PLAINS

CITY           SKY/WX    TMP DP  RH WIND       PRES   REMARKS
LAS VEGAS      FAIR      57  48  72 NE5       30.35S
RATON          FAIR      58  47  66 CALM      30.31S
CLAYTON        FAIR      64  55  72 NE8       30.27R

$$
NMZ532>537-251600-
EASTCENTRAL PLAINS

CITY           SKY/WX    TMP DP  RH WIND       PRES   REMARKS
TUCUMCARI      FAIR      68  57  68 NE8       30.22R
CANNON AFB     CLOUDY    66  59  77 NE8       30.22R
CLOVIS AIRPORT CLOUDY    64  55  72 NE9       30.22R

$$
NMZ028-029-538-251600-
SOUTHEAST PLAINS

CITY           SKY/WX    TMP DP  RH WIND       PRES   REMARKS
ROSWELL        PTSUNNY   70  59  68 N10       30.18R
ARTESIA        CLOUDY    66  66 100 N8        30.18R
CARLSBAD       CLOUDY    67  64  90 NW14      30.15R
HOBBS          CLOUDY    66  66 100 SE3       30.17R


$$



USA.gov is the U.S. government's official web portal to all federal, state and local government web resources and services.